User: anonymous   Login
Location: Caltech
(34.1382°N, 118.1253°W)
Time: 12:55:28
(UTC-07:00)
Language:

Gbstr 26 Del rocket - Orbit

View from above orbital plane
View from above orbital plane
View from above satellite
View from above satellite

Ground track
Ground track

The orbit data is extracted from the following two-line orbital elements,

1 25876U 99041E   14295.79547947  .00002876  00000-0  53785-3 0  5039
2 25876 051.7621 174.4525 0540208 087.9050 316.2589 14.02376923778629
Epoch (UTC): 22 October 2014 19:05:29
Eccentricity: 0.0540208
inclination: 51.7621°
perigee height: 493 km
apogee height: 1278 km
right ascension of ascending node: 174.4525°
argument of perigee: 87.9050°
revolutions per day: 14.02376923
mean anomaly at epoch: 316.2589°
orbit number at epoch: 77862

The dashed part of the orbit path shows where the satellite is in the earth's shadow,  

DLR